Presure
252 274 267 290 243 239 205 195 200 163 169 179 206 109 219 194 201 234 221 229 235 103 215 215 208 161 198 107 120 208 117 183
252 287 283 276 248 218 218 208 235 172 191 182 182 192 207 189 113 214 226 226 238 214 219 227 101 223 195 90 209 227 92 122
242 272 277 228 226 227 210 193 180 180 210 192 206 179 197 186 200 197 232 232 212 189 215 214 212 213 210 208 204 131 194 90
251 267 251 234 212 205 206 204 194 169 168 198 203 203 189 194 233 231 221 202 214 212 206 206 182 201 205 110 201 156 182 98
238 236 228 217 215 212 224 199 186 179 175 182 205 182 196 233 184 221 206 214 208 209 214 212 109 193 192 196 176 185 91 161
246 241 231 212 201 223 219 204 192 191 182 179 179 188 191 191 210 217 204 215 219 213 203 115 195 193 189 190 188 184 184 152
239 237 214 214 213 206 207 186 202 193 187 189 188 192 194 200 216 201 197 188 205 131 202 193 192 191 188 183 181 172 188 184
208 240 227 225 238 225 214 190 188 202 193 194 198 201 172 203 197 197 177 209 197 188 182 115 183 181 183 186 181 190 197 165
201 216 233 224 225 228 244 211 205 215 217 217 206 190 197 175 213 191 200 186 195 200 199 185 177 171 185 186 175 191 199 185
215 210 231 214 186 203 200 236 217 228 209 221 196 165 203 203 188 198 176 187 186 188 181 182 184 177 182 172 189 198 174 180
214 210 221 220 180 201 202 194 205 184 213 219 209 164 205 195 203 192 192 185 184 186 190 193 190 183 178 174 179 182 184 181
209 199 208 199 203 214 182 180 193 189 214 211 165 171 187 194 195 200 180 189 199 200 195 168 175 181 168 189 165 191 166 159
210 204 202 206 217 211 200 170 202 214 188 200 199 184 179 187 162 192 194 177 173 182 166 184 164 182 172 167 187 183 181 169
279 210 203 198 196 209 195 185 180 185 202 185 177 203 181 169 171 175 177 174 173 164 167 176 171 162 163 174 178 165 156 188
234 267 252 212 198 203 211 194 189 183 185 206 191 168 188 196 183 174 182 175 184 171 168 172 174 188 167 179 155 176 181 173
217 222 257 306 222 207 203 194 193 184 197 180 182 188 197 180 198 183 182 194 177 176 176 181 161 178 164 180 188 168 168 167
200 226 206 249 339 297 221 207 193 196 195 206 191 186 185 184 180 182 190 203 180 182 183 182 180 179 170 190 161 175 184 173
200 191 222 213 246 272 278 279 239 207 200 194 194 196 200 202 196 194 180 184 173 182 195 177 194 187 183 184 180 191 179 190
199 196 192 232 212 215 261 303 301 270 248 207 196 194 191 185 183 175 181 182 178 179 179 180 189 189 191 196 189 191 201 205
180 162 196 200 223 212 209 237 266 267 255 244 261 222 202 190 186 191 193 190 183 186 190 192 191 190 183 209 213 212 206 240
Wind_Speed
34 27 28 30 25 38 36 44 57 61 68 68 61 38 56 66 57 47 50 44 40 41 56 55 57 66 62 32 42 55 23 28
33 26 28 35 45 33 46 42 39 64 61 76 78 76 60 58 39 48 42 38 29 43 43 34 46 39 54 31 44 25 25 23
34 16 28 29 36 51 51 44 56 54 51 70 68 72 66 65 53 48 33 29 41 39 42 44 45 42 44 42 35 47 39 26
25 14 22 38 37 46 54 65 65 66 78 68 71 71 62 56 39 33 33 41 36 39 40 38 34 39 40 25 34 43 46 35
27 18 32 37 44 48 67 75 72 70 77 74 65 62 62 39 46 31 36 32 37 34 30 32 31 39 44 36 42 43 23 45
27 26 35 39 35 52 71 73 71 76 73 69 62 68 63 56 41 29 37 25 25 23 30 25 32 37 41 40 40 42 43 44
25 26 26 32 39 43 72 45 74 78 77 75 74 68 63 51 41 38 37 44 25 24 25 35 39 41 40 40 40 42 43 44
23 30 33 33 36 51 72 59 61 80 78 80 80 67 47 52 47 35 38 34 35 37 40 28 41 41 42 42 38 40 42 45
25 29 36 32 34 36 62 70 71 76 80 77 70 62 56 49 40 42 39 45 36 34 40 42 42 38 45 37 34 44 52 38
30 28 33 38 26 37 36 48 62 55 59 52 63 42 56 48 51 42 42 43 38 39 38 39 41 36 34 36 47 45 42 40
33 30 38 48 22 35 37 36 39 36 53 50 53 39 43 44 45 43 44 43 43 43 44 46 44 46 41 32 44 38 35 39
30 27 37 36 44 44 33 32 41 43 48 50 40 42 37 39 49 45 36 39 44 51 51 43 30 35 45 45 50 50 53 60
36 26 35 38 51 49 41 34 41 51 43 48 50 41 42 41 40 37 42 28 28 37 40 38 48 35 43 50 44 43 42 56
15 40 37 36 38 52 46 37 38 38 51 43 39 59 42 40 38 35 33 34 35 48 49 37 44 55 38 46 46 63 65 49
12 9 40 52 38 47 55 52 50 46 43 58 51 45 48 58 45 43 46 38 47 43 49 45 45 53 59 50 63 56 50 57
17 16 9 18 60 56 57 52 55 47 59 46 45 46 57 49 59 49 48 56 45 50 52 50 61 46 62 52 57 63 63 62
21 16 21 12 13 22 64 65 52 61 60 64 59 55 52 50 49 50 58 67 49 52 50 54 56 55 60 62 62 62 63 55
23 23 16 21 9 11 20 27 53 68 66 63 61 61 62 68 65 64 49 53 47 52 66 52 68 64 66 66 66 79 64 75
26 26 20 14 21 19 9 15 22 30 49 72 58 58 61 55 55 49 53 54 49 54 57 61 74 70 74 77 76 67 77 78
30 23 28 22 14 20 22 9 10 17 26 42 40 71 73 58 56 69 74 72 65 69 75 74 74 70 66 74 71 72 70 66
Wind_Direction
276 267 261 214 209 193 220 225 196 246 254 261 256 273 256 251 257 243 246 250 248 268 253 256 258 262 262 272 280 280 281 281
279 272 211 193 180 202 193 198 205 246 244 251 257 258 254 255 279 254 247 246 230 239 249 249 267 253 266 291 277 261 286 288
280 256 207 205 197 187 193 209 222 234 237 247 248 264 258 264 258 255 237 206 239 248 245 247 255 255 266 269 268 270 269 283
262 227 202 187 202 195 201 193 199 239 255 246 247 252 261 264 247 236 226 246 233 235 252 254 262 256 261 273 261 274 269 292
260 221 195 193 198 209 194 196 213 226 252 255 242 266 259 256 260 223 236 236 241 243 240 247 282 254 257 261 263 266 260 277
237 204 194 202 218 203 197 199 214 223 241 256 264 259 257 262 249 215 233 226 226 230 233 274 250 250 257 260 263 263 265 272
255 218 226 211 208 211 201 230 214 223 230 243 250 257 255 260 228 238 233 248 227 247 226 238 245 253 259 260 260 264 266 272
265 219 223 218 211 208 206 219 229 224 233 241 245 246 262 246 248 232 250 222 234 240 248 269 253 258 263 268 262 270 272 256
263 254 229 212 212 208 209 217 225 228 232 238 240 244 247 261 223 244 237 253 238 233 232 247 258 261 266 267 262 274 277 269
238 241 225 212 248 221 226 219 221 226 230 226 236 253 239 233 253 231 262 250 251 250 251 251 261 262 264 255 275 278 265 272
238 227 221 209 254 227 224 225 223 234 220 214 227 252 226 236 237 242 240 253 256 258 260 257 265 260 257 258 258 278 274 268
245 247 219 237 236 221 241 240 236 237 214 215 246 247 255 244 237 242 249 253 248 251 255 248 253 264 250 267 248 280 251 260
232 239 235 240 229 224 237 249 231 222 242 234 226 246 240 257 241 249 248 247 242 242 244 277 240 272 247 244 288 286 279 262
342 232 242 247 248 231 248 247 252 250 232 242 244 232 245 243 246 254 259 249 244 240 242 259 248 252 271 248 264 252 264 294
280 287 238 236 253 245 236 245 247 252 252 234 245 246 244 246 255 249 257 255 257 253 249 254 259 275 250 275 262 272 272 275
286 273 266 271 236 241 246 249 248 253 248 251 252 250 245 253 247 255 250 258 254 251 252 268 253 266 252 278 288 261 259 263
300 283 282 263 299 262 239 242 249 248 254 244 252 254 253 254 253 258 260 251 258 262 271 266 271 262 252 282 259 276 286 270
292 294 291 282 272 335 264 254 242 242 248 251 251 253 252 252 257 257 256 260 253 268 265 274 278 278 281 284 275 284 281 287
292 291 293 307 284 279 339 289 257 245 244 246 250 252 254 255 256 251 257 259 261 267 270 274 276 276 280 280 282 274 278 278
279 275 292 292 319 283 281 309 332 267 250 241 239 246 250 256 260 260 260 263 265 267 270 270 270 270 273 272 272 271 275 276